{"data":{"norad_id":68546,"intl_designator":"2026-070E","name":"STARLINK-37290","alt_names":[],"object_type":"PAYLOAD","status":"ACTIVE","operator":null,"country":"US","launch_date":"2026-04-02","launch_site_code":"AFETR","launch_vehicle":null,"mission":null,"orbit_class":"UNKNOWN","rcs_meters":null,"size_class":null,"mass_kg":null,"dimensions":null,"purposes":["comms"],"wikipedia_slug":null,"has_3d_model":false,"image_url":null,"decayed_at":null,"tle_current":{"epoch":"2026-09-20T00:53:42.929952Z","epoch_age_seconds":84710,"freshness":"FRESH","line1":"1 68546U 26070E   26263.03730243  .00022377  00000+0  67062-3 0  9999","line2":"2 68546  53.1587 176.0652 0000521  91.4624 268.6439 15.34438195 26369","mean_motion":15.34438195,"eccentricity":5.21e-5,"inclination_deg":53.1587,"raan_deg":176.0652,"arg_perigee_deg":91.4624,"mean_anomaly_deg":268.6439,"bstar":0.00067062,"rev_number":2636,"period_min":93.845422037347,"perigee_km":462.23331711067,"apogee_km":462.94612083478,"semimajor_km":6840.7267189727,"source":"CELESTRAK","updated_at":"2026-09-20T09:00:43.932086Z"}}}